Change the Weather History Date:

Sunday, September 22, 2013

  Actual Average Record
Temperature  
Mean Temperature 54 °F -  
Max Temperature 62 °F - - ()
Min Temperature 45 °F - - ()
Degree Days  
Heating Degree Days 10    
Growing Degree Days 4 (Base 50)    
Moisture  
Dew Point 54 °F    
Average Humidity 91    
Maximum Humidity 100    
Minimum Humidity 75    
Precipitation  
Precipitation 0.51 in - - ()
Sea Level Pressure  
Sea Level Pressure 29.62 in    
Wind  
Wind Speed 4 mph ()    
Max Wind Speed 8 mph    
Max Gust Speed -    
T = Trace of Precipitation, MM = Missing Value Source: Averaged Metar Reports

Daily Weather History Graph

Daily Weather History Graph

Search for Another Location

Airport or City:

Trip Planner

Search our weather history database for the weather conditions in past years. The results will help you decide how hot, cold, wet, or windy it might be!

Date:

Astronomy

Sep. 22, 2013 Rise Set
Actual Time 6:30 AM EDT 6:40 PM EDT
Civil Twilight 6:00 AM EDT 7:10 PM EDT
Nautical Twilight 5:25 AM EDT 7:45 PM EDT
Astronomical Twilight 4:48 AM EDT 8:21 PM EDT
Moon 8:14 PM EDT (9/22) 10:00 AM EDT (9/22)
Length of Visible Light 13h 09m
Length of Day
12h 10m
Waning Gibbous, 89% of the Moon is Illuminated
Sep 22
Waning Gibbous
Sep 26
Last Quarter
Oct 4
New
Oct 11
First Quarter
Oct 18
Full

Hourly Weather History & Observations

Time (EDT) Temp. Windchill Dew Point Humidity Pressure Visibility Wind Dir Wind Speed Gust Speed Precip Events Conditions
12:00 AM 59.5 °F - 56.5 °F 90% 29.59 in - SSE 6.9 mph - N/A   Unknown
1:00 AM 61.0 °F - 57.4 °F 88% 29.56 in - SE 3.5 mph - N/A   Unknown
2:00 AM 62 °F - 57 °F 80%  in - SE 4.6 mph - -  
2:00 AM 62.4 °F - 57.4 °F 84% 29.53 in - SE 4.6 mph - N/A   Unknown
3:00 AM 60.4 °F - 58.1 °F 92% 29.51 in - SSE 3.5 mph - N/A   Unknown
4:00 AM 61.0 °F - 59.0 °F 93% 29.51 in - West 4.6 mph - 0.05 in   Unknown
5:00 AM 60.1 °F - 59.0 °F 96% 29.52 in - WNW 3.5 mph - 0.25 in   Unknown
6:00 AM 58.1 °F - 57.7 °F 99% 29.54 in - WSW 1.2 mph - 0.11 in   Unknown
7:00 AM 57.7 °F - 57.7 °F 100% 29.55 in - SSW 1.2 mph - 0.07 in   Unknown
8:00 AM 58 °F - 58 °F 98% 29.55 in - South 3.5 mph - -  
8:00 AM 57.6 °F - 57.6 °F 100% 29.55 in - South 3.5 mph - 0.03 in   Unknown
9:00 AM 58.5 °F - 58.5 °F 100% 29.55 in - SSE 3.5 mph - N/A   Unknown
10:00 AM 59.9 °F - 59.5 °F 99% 29.55 in - SSE 3.5 mph - N/A   Unknown
11:00 AM 60.1 °F - 56.1 °F 87% 29.57 in - NW 4.6 mph - N/A   Unknown
12:00 PM 61.7 °F - 53.6 °F 75% 29.58 in - West 8.1 mph - N/A   Unknown
1:00 PM 60.8 °F - 54.3 °F 79% 29.59 in - West 4.6 mph - N/A   Unknown
2:00 PM 58 °F - 55 °F 86% 29.61 in - WNW 4.6 mph - -  
2:00 PM 58.3 °F - 54.9 °F 88% 29.61 in - WNW 4.6 mph - 0.01 in   Unknown
3:00 PM 55.9 °F - 52.5 °F 88% 29.64 in - West 4.6 mph - N/A   Unknown
4:00 PM 53.8 °F - 51.4 °F 92% 29.66 in - West 5.8 mph - 0.01 in   Unknown
5:00 PM 51.6 °F - 49.8 °F 94% 29.68 in - WNW 4.6 mph - 0.03 in   Unknown
6:00 PM 49.6 °F - 47.7 °F 93% 29.71 in - WNW 6.9 mph - 0.02 in   Unknown
7:00 PM 48.9 °F - 46.8 °F 92% 29.72 in - West 3.5 mph - N/A   Unknown
8:00 PM 49 °F - 46 °F 86% 29.74 in - WNW 4.6 mph - -  
8:00 PM 48.6 °F - 46.0 °F 91% 29.74 in - WNW 4.6 mph - N/A   Unknown
9:00 PM 48.2 °F - 45.3 °F 90% 29.74 in - West 4.6 mph - N/A   Unknown
10:00 PM 47.1 °F - 43.7 °F 88% 29.75 in - West 4.6 mph - N/A   Unknown
11:00 PM 45.9 °F 44.6 °F 42.8 °F 89% 29.76 in - WNW 3.5 mph - N/A   Unknown